Time,TemperatureF,DewpointF,PressureIn,WindDirection,WindDirectionDegrees,WindSpeedMPH,WindSpeedGustMPH,Humidity,HourlyPrecipIn,Conditions,Clouds,dailyrainin,SoftwareType,DateUTC
2013-12-17 12:52:00,30.0,10.0,-100.00,North,-999,-999.0,-999.0,43,-99.99,,,-99.99,,2013-12-17 19:52:00,
2013-12-17 13:11:00,30.0,10.0,-100.00,North,-999,-999.0,-999.0,42,-99.99,,,-99.99,,2013-12-17 20:11:00,
2013-12-17 13:22:00,29.0,10.0,-100.00,North,-999,-999.0,-999.0,45,-99.99,,,-99.99,,2013-12-17 20:22:00,
2013-12-17 13:42:00,29.0,11.0,-100.00,North,-999,-999.0,-999.0,46,-99.99,,,-99.99,,2013-12-17 20:42:00,
2013-12-17 13:52:00,29.0,11.0,-100.00,North,-999,-999.0,-999.0,46,-99.99,,,-99.99,,2013-12-17 20:52:00,
2013-12-17 14:11:00,29.0,11.0,-100.00,North,-999,-999.0,-999.0,46,-99.99,,,-99.99,,2013-12-17 21:11:00,
2013-12-17 14:22:00,29.0,11.0,-100.00,North,-999,-999.0,-999.0,46,-99.99,,,-99.99,,2013-12-17 21:22:00,
2013-12-17 14:43:00,30.0,11.0,-100.00,North,-999,-999.0,-999.0,45,-99.99,,,-99.99,,2013-12-17 21:43:00,
2013-12-17 14:53:00,30.0,12.0,-100.00,North,-999,-999.0,-999.0,46,-99.99,,,-99.99,,2013-12-17 21:53:00,
2013-12-17 15:12:00,32.0,13.0,-100.00,North,-999,-999.0,-999.0,44,-99.99,,,-99.99,,2013-12-17 22:12:00,
2013-12-17 15:23:00,29.0,12.0,-100.00,North,-999,-999.0,-999.0,48,-99.99,,,-99.99,,2013-12-17 22:23:00,
2013-12-17 15:34:00,29.0,12.0,-100.00,North,-999,-999.0,-999.0,48,-99.99,,,-99.99,,2013-12-17 22:34:00,
2013-12-17 15:43:00,29.0,12.0,-100.00,North,-999,-999.0,-999.0,48,-99.99,,,-99.99,,2013-12-17 22:43:00,
2013-12-17 15:53:00,30.0,13.0,-100.00,North,-999,-999.0,-999.0,48,-99.99,,,-99.99,,2013-12-17 22:53:00,
2013-12-17 16:11:00,30.0,13.0,-100.00,North,-999,-999.0,-999.0,49,-99.99,,,-99.99,,2013-12-17 23:11:00,
2013-12-17 16:22:00,30.0,14.0,-100.00,North,-999,-999.0,-999.0,50,-99.99,,,-99.99,,2013-12-17 23:22:00,
2013-12-17 16:42:00,30.0,13.0,-100.00,North,-999,-999.0,-999.0,49,-99.99,,,-99.99,,2013-12-17 23:42:00,
2013-12-17 16:53:00,30.0,13.0,-100.00,North,-999,-999.0,-999.0,48,-99.99,,,-99.99,,2013-12-17 23:53:00,
2013-12-17 17:12:00,31.0,13.0,-100.00,North,-999,-999.0,-999.0,46,-99.99,,,-99.99,,2013-12-18 00:12:00,
2013-12-17 17:22:00,34.0,11.0,-100.00,North,-999,-999.0,-999.0,38,-99.99,,,-99.99,,2013-12-18 00:22:00,
2013-12-17 17:42:00,35.0,9.0,-100.00,North,-999,-999.0,-999.0,34,-99.99,,,-99.99,,2013-12-18 00:42:00,
2013-12-17 17:52:00,34.0,10.0,-100.00,North,-999,-999.0,-999.0,36,-99.99,,,-99.99,,2013-12-18 00:52:00,
2013-12-17 18:11:00,34.0,10.0,-100.00,North,-999,-999.0,-999.0,36,-99.99,,,-99.99,,2013-12-18 01:11:00,
2013-12-17 18:22:00,35.0,11.0,-100.00,North,-999,-999.0,-999.0,36,-99.99,,,-99.99,,2013-12-18 01:22:00,
2013-12-17 18:42:00,34.0,11.0,-100.00,North,-999,-999.0,-999.0,38,-99.99,,,-99.99,,2013-12-18 01:42:00,
2013-12-17 18:52:00,31.0,12.0,-100.00,North,-999,-999.0,-999.0,44,-99.99,,,-99.99,,2013-12-18 01:52:00,
2013-12-17 19:11:00,33.0,10.0,-100.00,North,-999,-999.0,-999.0,38,-99.99,,,-99.99,,2013-12-18 02:11:00,
2013-12-17 19:21:00,36.0,10.0,-100.00,North,-999,-999.0,-999.0,33,-99.99,,,-99.99,,2013-12-18 02:21:00,
2013-12-17 19:42:00,35.0,10.0,-100.00,North,-999,-999.0,-999.0,35,-99.99,,,-99.99,,2013-12-18 02:42:00,
2013-12-17 19:52:00,35.0,9.0,-100.00,North,-999,-999.0,-999.0,34,-99.99,,,-99.99,,2013-12-18 02:52:00,
2013-12-17 20:11:00,32.0,13.0,-100.00,North,-999,-999.0,-999.0,44,-99.99,,,-99.99,,2013-12-18 03:11:00,
2013-12-17 20:22:00,32.0,13.0,-100.00,North,-999,-999.0,-999.0,44,-99.99,,,-99.99,,2013-12-18 03:22:00,
2013-12-17 20:43:00,30.0,13.0,-100.00,North,-999,-999.0,-999.0,49,-99.99,,,-99.99,,2013-12-18 03:43:00,
2013-12-17 20:53:00,29.0,13.0,-100.00,North,-999,-999.0,-999.0,51,-99.99,,,-99.99,,2013-12-18 03:53:00,
2013-12-17 21:13:00,29.0,13.0,-100.00,North,-999,-999.0,-999.0,51,-99.99,,,-99.99,,2013-12-18 04:13:00,
2013-12-17 21:23:00,31.0,13.0,-100.00,North,-999,-999.0,-999.0,46,-99.99,,,-99.99,,2013-12-18 04:23:00,
2013-12-17 21:43:00,31.0,13.0,-100.00,North,-999,-999.0,-999.0,46,-99.99,,,-99.99,,2013-12-18 04:43:00,
2013-12-17 21:53:00,31.0,13.0,-100.00,North,-999,-999.0,-999.0,46,-99.99,,,-99.99,,2013-12-18 04:53:00,
2013-12-17 22:12:00,30.0,12.0,-100.00,North,-999,-999.0,-999.0,47,-99.99,,,-99.99,,2013-12-18 05:12:00,
2013-12-17 22:22:00,30.0,12.0,-100.00,North,-999,-999.0,-999.0,46,-99.99,,,-99.99,,2013-12-18 05:22:00,
2013-12-17 22:42:00,31.0,11.0,-100.00,North,-999,-999.0,-999.0,43,-99.99,,,-99.99,,2013-12-18 05:42:00,
2013-12-17 22:53:00,30.0,12.0,-100.00,North,-999,-999.0,-999.0,46,-99.99,,,-99.99,,2013-12-18 05:53:00,
2013-12-17 23:12:00,29.0,12.0,-100.00,North,-999,-999.0,-999.0,49,-99.99,,,-99.99,,2013-12-18 06:12:00,
2013-12-17 23:22:00,29.0,13.0,-100.00,North,-999,-999.0,-999.0,51,-99.99,,,-99.99,,2013-12-18 06:22:00,
2013-12-17 23:42:00,29.0,14.0,-100.00,North,-999,-999.0,-999.0,52,-99.99,,,-99.99,,2013-12-18 06:42:00,
2013-12-17 23:53:00,29.0,14.0,-100.00,North,-999,-999.0,-999.0,53,-99.99,,,-99.99,,2013-12-18 06:53:00,